This is the latest recevied weather packets stored in our database for station/object KI4NG. If no packets are shown the sender has not sent any weather packets the latest 10 day(s).
| Time | Temp. | Humidity | Pressure | Rain* | Wind** | Luminosity | Snow |
|---|---|---|---|---|---|---|---|
| 1788373821 | 31.67° C | 67% | 1021.9 hPa | 0 mm | - | 219 W/m² | - |
| 1788373517 | 31.67° C | 62% | 1021.8 hPa | 0 mm | - | 181 W/m² | - |
| 1788373213 | 30.56° C | 68% | 1021.6 hPa | 0 mm | - | 730 W/m² | - |
| 1788372909 | 31.11° C | 70% | 1021.6 hPa | 0 mm | - | 140 W/m² | - |
| 1788372603 | 31.67° C | 67% | 1021.7 hPa | 0 mm | - | 134 W/m² | - |
| 1788372303 | 31.67° C | 66% | 1021.7 hPa | 0 mm | - | 143 W/m² | - |
| 1788371998 | 31.11° C | 66% | 1022.1 hPa | 0 mm | - | 161 W/m² | - |
| 1788371693 | 31.67° C | 65% | 1022 hPa | 0 mm | - | 165 W/m² | - |
| 1788371388 | 32.78° C | 65% | 1021.8 hPa | 0 mm | - | 204 W/m² | - |
| 1788371085 | 33.89° C | 60% | 1021.7 hPa | 0 mm | - | 217 W/m² | - |
| 1788370781 | 32.78° C | 61% | 1022.1 hPa | 0 mm | - | 809 W/m² | - |
| 1788370480 | 31.67° C | 63% | 1022 hPa | 0 mm | - | 779 W/m² | - |
| 1788370175 | 31.11° C | 65% | 1022.2 hPa | 0 mm | - | 224 W/m² | - |
| 1788369874 | 31.11° C | 67% | 1022.2 hPa | 0 mm | - | 200 W/m² | - |
| 1788369570 | 31.67° C | 66% | 1022.3 hPa | 0 mm | - | 186 W/m² | - |
| 1788369265 | 32.22° C | 63% | 1022.3 hPa | 0 mm | - | 167 W/m² | - |
| 1788368961 | 32.78° C | 60% | 1022.5 hPa | 0 mm | - | 248 W/m² | - |
| 1788368656 | 32.78° C | 61% | 1022.7 hPa | 0 mm | - | 797 W/m² | - |
| 1788368352 | 33.33° C | 63% | 1022.5 hPa | 0 mm | - | 796 W/m² | - |
| 1788368051 | 32.22° C | 63% | 1022.5 hPa | 0 mm | - | 773 W/m² | - |
| 1788367746 | 31.11° C | 69% | 1022.7 hPa | 0 mm | - | 757 W/m² | - |
| 1788367441 | 30° C | 71% | 1022.9 hPa | 0 mm | - | 731 W/m² | - |
| 1788367140 | 30° C | 71% | 1023 hPa | 0 mm | - | 184 W/m² | - |
| 1788366835 | 30.56° C | 70% | 1023 hPa | 0 mm | - | 139 W/m² | - |
| 1788366533 | 30.56° C | 66% | 1022.9 hPa | 0 mm | - | 113 W/m² | - |
* Rain latest hour (hover to see other rain measurements)
** Current wind speed in m/s (hover to see current wind gust speed)